Harlingen, TX

6:46 AM CST on January 24, 2018 (GMT -0600)
Valley International

Weather History for KHRL - January, 2013

Change the Weather History Date:

Thursday, January 3, 2013

  Actual Average Record
Temperature  
Mean Temperature 45 °F 59 °F  
Max Temperature 48 °F 70 °F 85 °F (1956)
Min Temperature 42 °F 49 °F 23 °F (1945)
Degree Days  
Heating Degree Days 20 7  
Month to date heating degree days 21  
Since 1 July heating degree days 269  
Cooling Degree Days 0 2  
Month to date cooling degree days 6  
Year to date cooling degree days 6  
Moisture  
Dew Point 40 °F    
Average Humidity 83    
Maximum Humidity 93    
Minimum Humidity 66    
Precipitation  
Precipitation 0.03 in 0.02 in 0.74 in (2007)
Month to date precipitation 0.07  
Year to date precipitation 0.07  
Sea Level Pressure  
Sea Level Pressure 30.31 in    
Wind  
Wind Speed 14 mph (NNW)    
Max Wind Speed 18 mph    
Max Gust Speed -    
Visibility 7 miles    
Events Rain    
T = Trace of Precipitation, MM = Missing Value Source: NWS Daily Summary

Daily Weather History Graph

Daily Weather History Graph

Search for Another Location

Airport or City:

Trip Planner

Search our weather history database for the weather conditions in past years. The results will help you decide how hot, cold, wet, or windy it might be!

Date:

Astronomy

Jan. 03, 2013 Rise Set
Actual Time 7:18 AM CST 5:51 PM CST
Civil Twilight 6:53 AM CST 6:17 PM CST
Nautical Twilight 6:24 AM CST 6:45 PM CST
Astronomical Twilight 5:56 AM CST 7:13 PM CST
Moon 11:47 PM CST (1/3) 11:08 AM CST (1/3)
Length of Visible Light 11h 23m
Length of Day
10h 33m
Waning Gibbous, 65% of the Moon is Illuminated
Jan 3
Waning Gibbous
Jan 4
Last Quarter
Jan 11
New
Jan 18
First Quarter
Jan 26
Full

Hourly Weather History & Observations

Time (CST) Temp. Windchill Dew Point Humidity Pressure Visibility Wind Dir Wind Speed Gust Speed Precip Events Conditions
12:48 AM 42.8 °F 35.4 °F 39.2 °F 87% 30.27 in 8.0 mi NNW 15.0 mph - N/A   Overcast
12:52 AM 42.8 °F 35.8 °F 39.2 °F 87% 30.27 in 8.0 mi NNW 13.8 mph - N/A   Overcast
1:52 AM 42.1 °F 35.2 °F 39.0 °F 89% 30.27 in 8.0 mi NNW 12.7 mph - N/A   Overcast
2:11 AM 42.8 °F 36.6 °F 39.2 °F 87% 30.26 in 8.0 mi NNW 11.5 mph - N/A   Overcast
2:52 AM 43.0 °F 36.4 °F 39.0 °F 86% 30.27 in 8.0 mi NNW 12.7 mph - N/A   Overcast
3:16 AM 42.8 °F 36.6 °F 39.2 °F 87% 30.26 in 7.0 mi NNW 11.5 mph - 0.01 in Rain Light Rain
3:52 AM 43.0 °F 36.8 °F 39.0 °F 86% 30.27 in 9.0 mi NNW 11.5 mph - 0.01 in   Overcast
4:52 AM 42.1 °F 34.9 °F 39.0 °F 89% 30.27 in 8.0 mi North 13.8 mph - N/A   Overcast
5:03 AM 42.8 °F 36.6 °F 39.2 °F 87% 30.27 in 7.0 mi NNW 11.5 mph - N/A   Overcast
5:52 AM 42.1 °F 35.2 °F 39.9 °F 92% 30.27 in 6.0 mi North 12.7 mph - N/A   Overcast
6:52 AM 42.1 °F 34.9 °F 39.9 °F 92% 30.30 in 5.0 mi NNW 13.8 mph - N/A   Overcast
7:31 AM 42.8 °F 35.1 °F 39.2 °F 87% 30.31 in 2.0 mi NNW 16.1 mph - 0.01 in Rain Light Rain
7:52 AM 42.1 °F 34.9 °F 39.9 °F 92% 30.31 in 2.0 mi NNW 13.8 mph - 0.02 in Rain Light Rain
8:52 AM 43.0 °F 36.0 °F 39.9 °F 89% 30.33 in 5.0 mi NNW 13.8 mph - 0.00 in   Overcast
9:52 AM 44.1 °F 37.1 °F 41.0 °F 89% 30.35 in 6.0 mi NNW 15.0 mph - N/A   Overcast
10:52 AM 46.0 °F 39.3 °F 41.0 °F 83% 30.35 in 8.0 mi NNW 16.1 mph - N/A   Overcast
11:52 AM 46.0 °F 39.3 °F 39.9 °F 79% 30.35 in 8.0 mi NNW 16.1 mph - N/A   Overcast
12:10 PM 44.6 °F 37.2 °F 41.0 °F 87% 30.34 in 2.0 mi NNW 17.3 mph - 0.00 in Rain Light Rain
12:37 PM 44.6 °F 37.2 °F 42.8 °F 93% 30.32 in 2.5 mi NNW 17.3 mph - 0.00 in Rain Light Rain
12:45 PM 44.6 °F 37.4 °F 42.8 °F 93% 30.32 in 2.5 mi NNW 16.1 mph - 0.00 in Rain Light Rain
12:52 PM 45.0 °F 37.6 °F 42.1 °F 90% 30.32 in 2.5 mi NNW 17.3 mph - 0.00 in Rain Light Rain
12:56 PM 44.6 °F 36.9 °F 42.8 °F 93% 30.31 in 2.5 mi NNW 18.4 mph - 0.00 in Rain Light Rain
1:52 PM 45.0 °F 38.2 °F 42.1 °F 90% 30.30 in 2.5 mi NNW 15.0 mph - 0.00 in   Overcast
1:59 PM 44.6 °F 37.8 °F 42.8 °F 93% 30.30 in 5.0 mi NNW 15.0 mph - N/A   Overcast
2:06 PM 44.6 °F 37.8 °F 42.8 °F 93% 30.30 in 2.5 mi NNW 15.0 mph - N/A   Overcast
2:24 PM 46.4 °F 39.5 °F 42.8 °F 87% 30.30 in 2.5 mi NNW 17.3 mph - N/A   Overcast
2:52 PM 46.0 °F 39.3 °F 42.1 °F 86% 30.30 in 2.5 mi North 16.1 mph - N/A   Overcast
2:59 PM 46.4 °F 39.5 °F 41.0 °F 81% 30.30 in 6.0 mi North 17.3 mph - N/A   Haze
3:27 PM 46.4 °F 39.8 °F 41.0 °F 81% 30.30 in 10.0 mi North 16.1 mph - N/A   Overcast
3:37 PM 46.4 °F 39.8 °F 39.2 °F 76% 30.30 in 10.0 mi North 16.1 mph - N/A   Overcast
3:52 PM 48.0 °F - 39.9 °F 74% 30.30 in 10.0 mi NNW 18.4 mph - N/A   Overcast
4:30 PM 48.2 °F - 39.2 °F 71% 30.32 in 10.0 mi North 10.4 mph - N/A   Overcast
4:52 PM 48.0 °F - 39.0 °F 71% 30.32 in 10.0 mi North 13.8 mph - N/A   Overcast
5:52 PM 46.9 °F - 37.9 °F 71% 30.34 in 10.0 mi North 12.7 mph - N/A   Overcast
6:52 PM 46.9 °F - 37.0 °F 68% 30.35 in 10.0 mi North 12.7 mph - N/A   Overcast
7:52 PM 46.9 °F - 36.0 °F 66% 30.36 in 10.0 mi NNW 12.7 mph - N/A   Overcast
8:52 PM 46.9 °F - 36.0 °F 66% 30.36 in 10.0 mi NNW 13.8 mph - N/A   Overcast
9:52 PM 46.9 °F - 37.0 °F 68% 30.35 in 10.0 mi NNW 12.7 mph - 0.00 in   Overcast
10:52 PM 46.9 °F - 37.0 °F 68% 30.34 in 10.0 mi NNW 10.4 mph - N/A   Overcast
11:52 PM 46.9 °F - 37.0 °F 68% 30.32 in 10.0 mi NW 12.7 mph - 0.00 in   Overcast